Location: College Park
(38.9810°N, 76.9370°W)
Time: 11:32:44
(UTC-04:00)

Envisat - Pass Details

Date: 13 February 2018
Orbit: 764 x 766 km, 98.2° (Epoch: 24 May)

Event Time Altitude Azimuth Distance (km) Brightness Sun altitude
Exits shadow 18:50:39 - 132° (SE) 2,529 5.3 -13.7°
Reaches altitude 10° 18:51:19 10° 129° (SE) 2,295 5.1 -13.9°
Maximum altitude 18:55:42 31° 68° (ENE) 1,334 3.7 -14.7°
Drops below altitude 10° 19:00:06 10° 9° (N) 2,308 5.3 -15.6°
Sets 19:02:38 0° 359° (N) 3,239 6.2 -16.0°
